Hourly Weather Rudzienko

Today, 10 April, Saturday

Time Temperature Precipitation Wind Pressure Humidity
00:00 +2°C° 0 mm 5 mps 748 mmHg 65%
01:00 +2°C° 0 mm 5 mps 748 mmHg 65%
02:00 +2°C° 0 mm 5 mps 747 mmHg 65%
03:00 +2°C° 0 mm 5 mps 747 mmHg 65%
04:00 +2°C° 0 mm 5 mps 747 mmHg 65%
05:00 +3°C° 0 mm 5 mps 747 mmHg 65%
06:00 +5°C° 0 mm 5 mps 747 mmHg 65%
07:00 +5°C° 0 mm 5 mps 747 mmHg 65%
08:00 +7°C° 0 mm 5 mps 747 mmHg 60%
09:00 +9°C° 0 mm 5 mps 747 mmHg 55%
10:00 +11°C° 0 mm 6 mps 747 mmHg 50%
11:00 +13°C° 0 mm 6 mps 747 mmHg 47%
12:00 +14°C° 0 mm 6 mps 747 mmHg 44%
13:00 +16°C° 0 mm 5 mps 747 mmHg 41%
14:00 +16°C° 0 mm 5 mps 747 mmHg 43%
15:00 +16°C° 0 mm 5 mps 747 mmHg 44%
16:00 +17°C° 0 mm 4 mps 747 mmHg 46%
17:00 +15°C° 0 mm 5 mps 747 mmHg 50%
18:00 +13°C° 0 mm 5 mps 747 mmHg 54%
19:00 +12°C° 0 mm 5 mps 747 mmHg 59%
20:00 +11°C° 0 mm 4 mps 748 mmHg 62%
21:00 +10°C° 0 mm 4 mps 748 mmHg 66%
22:00 +9°C° 0 mm 3 mps 748 mmHg 69%
23:00 +9°C° 0 mm 3 mps 749 mmHg 71%

Tomorrow, 11 April, Sunday

Time Temperature Precipitation Wind Pressure Humidity
00:00 +9°C° 0 mm 3 mps 749 mmHg 72%
01:00 +8°C° 0 mm 3 mps 749 mmHg 74%
02:00 +8°C° 0 mm 3 mps 749 mmHg 75%
03:00 +7°C° 0 mm 3 mps 749 mmHg 75%
04:00 +7°C° 0 mm 3 mps 749 mmHg 76%
05:00 +7°C° 0 mm 4 mps 749 mmHg 74%
06:00 +7°C° 0 mm 4 mps 750 mmHg 72%
07:00 +8°C° 0 mm 5 mps 750 mmHg 70%
08:00 +10°C° 0 mm 5 mps 750 mmHg 63%
09:00 +13°C° 0 mm 6 mps 750 mmHg 56%
10:00 +14°C° 0 mm 7 mps 750 mmHg 50%
11:00 +15°C° 0 mm 7 mps 749 mmHg 47%
12:00 +16°C° 0 mm 7 mps 749 mmHg 44%
13:00 +17°C° 0 mm 8 mps 749 mmHg 41%
14:00 +17°C° 0 mm 7 mps 749 mmHg 43%
15:00 +17°C° 0 mm 6 mps 749 mmHg 45%
16:00 +16°C° 0 mm 6 mps 748 mmHg 47%
17:00 +15°C° 0 mm 5 mps 749 mmHg 51%
18:00 +14°C° 0 mm 5 mps 749 mmHg 55%
19:00 +12°C° 0 mm 4 mps 749 mmHg 59%
20:00 +12°C° 0 mm 4 mps 749 mmHg 61%
21:00 +12°C° 0 mm 5 mps 749 mmHg 63%
22:00 +10°C° 0 mm 5 mps 749 mmHg 65%
23:00 +10°C° 0 mm 5 mps 749 mmHg 67%

Day after tomorrow, 12 April, Monday

Time Temperature Precipitation Wind Pressure Humidity
00:00 +10°C° 0 mm 4 mps 749 mmHg 69%
01:00 +8°C° 0 mm 4 mps 749 mmHg 72%
02:00 +8°C° 0 mm 4 mps 748 mmHg 72%
03:00 +8°C° 0 mm 4 mps 748 mmHg 71%
04:00 +8°C° 0 mm 5 mps 748 mmHg 71%
05:00 +9°C° 0 mm 5 mps 748 mmHg 71%
06:00 +9°C° 0 mm 5 mps 748 mmHg 72%
07:00 +10°C° 0 mm 5 mps 748 mmHg 72%
08:00 +10°C° 0 mm 5 mps 748 mmHg 70%
09:00 +12°C° 0 mm 5 mps 748 mmHg 69%
10:00 +12°C° 0 mm 5 mps 747 mmHg 67%
11:00 +13°C° 0 mm 5 mps 747 mmHg 65%
12:00 +13°C° 0 mm 4 mps 747 mmHg 63%
13:00 +14°C° 0 mm 4 mps 747 mmHg 61%
14:00 +13°C° 0 mm 3 mps 747 mmHg 64%
15:00 +13°C° 0 mm 3 mps 747 mmHg 67%
16:00 +13°C° 0 mm 3 mps 747 mmHg 70%
17:00 +13°C° 0 mm 2 mps 747 mmHg 72%
18:00 +12°C° 0 mm 2 mps 747 mmHg 75%
19:00 +12°C° 0 mm 2 mps 747 mmHg 78%
20:00 +12°C° 0 mm 2 mps 747 mmHg 79%
21:00 +10°C° 0 mm 2 mps 747 mmHg 80%
22:00 +10°C° 0 mm 2 mps 748 mmHg 81%
23:00 +9°C° 0 mm 2 mps 748 mmHg 84%

13 April, Tuesday

Time Temperature Precipitation Wind Pressure Humidity
00:00 +9°C° 0 mm 3 mps 748 mmHg 88%
01:00 +8°C° 0 mm 3 mps 748 mmHg 91%
02:00 +8°C° 0 mm 3 mps 748 mmHg 90%
03:00 +6°C° 0 mm 4 mps 748 mmHg 88%
04:00 +5°C° 0 mm 4 mps 748 mmHg 87%
05:00 +5°C° 0.2 mm 4 mps 748 mmHg 87%
06:00 +5°C° 0.2 mm 5 mps 748 mmHg 86%
07:00 +5°C° 0.2 mm 5 mps 748 mmHg 86%
08:00 +3°C° 1.2 mm 5 mps 749 mmHg 88%
09:00 +3°C° 1.2 mm 5 mps 749 mmHg 90%
10:00 +3°C° 1.2 mm 5 mps 749 mmHg 92%
11:00 +2°C° 1.3 mm 5 mps 749 mmHg 93%
12:00 +2°C° 1.3 mm 5 mps 749 mmHg 94%
13:00 +1°C° 1.3 mm 6 mps 750 mmHg 95%
14:00 +1°C° 0.6 mm 6 mps 750 mmHg 95%
15:00 +1°C° 0.6 mm 6 mps 750 mmHg 95%
16:00 -1°C° 0.6 mm 6 mps 750 mmHg 96%
17:00 -1°C° 0.3 mm 6 mps 750 mmHg 96%
18:00 -1°C° 0.3 mm 6 mps 750 mmHg 96%
19:00 -1°C° 0.3 mm 6 mps 750 mmHg 96%
20:00 -1°C° 0.6 mm 6 mps 750 mmHg 96%
21:00 -1°C° 0.6 mm 6 mps 750 mmHg 96%
22:00 -1°C° 0.6 mm 6 mps 749 mmHg 96%
23:00 -1°C° 1.3 mm 6 mps 749 mmHg 97%

14 April, Wednesday

Time Temperature Precipitation Wind Pressure Humidity
00:00 -2°C° 1.3 mm 6 mps 748 mmHg 97%
01:00 -2°C° 1.3 mm 6 mps 748 mmHg 98%
02:00 -2°C° 1.4 mm 6 mps 748 mmHg 98%
03:00 -2°C° 1.4 mm 6 mps 748 mmHg 98%
04:00 -2°C° 1.4 mm 6 mps 747 mmHg 98%
05:00 -2°C° 1.7 mm 7 mps 747 mmHg 98%
06:00 -2°C° 1.7 mm 7 mps 747 mmHg 98%
07:00 -3°C° 1.7 mm 7 mps 747 mmHg 98%
08:00 -2°C° 0.9 mm 7 mps 747 mmHg 98%
09:00 -2°C° 0.9 mm 7 mps 746 mmHg 98%
10:00 -2°C° 0.9 mm 7 mps 746 mmHg 98%
11:00 -2°C° 0.5 mm 7 mps 746 mmHg 99%
12:00 -2°C° 0.5 mm 7 mps 746 mmHg 99%
13:00 -2°C° 0.5 mm 6 mps 746 mmHg 99%
14:00 -2°C° 0.4 mm 6 mps 746 mmHg 99%
15:00 -2°C° 0.4 mm 7 mps 745 mmHg 99%
16:00 -1°C° 0.4 mm 7 mps 745 mmHg 99%
17:00 -1°C° 1.6 mm 7 mps 745 mmHg 99%
18:00 -1°C° 1.6 mm 6 mps 745 mmHg 99%
19:00 -1°C° 1.6 mm 6 mps 745 mmHg 99%
20:00 -1°C° 1 mm 6 mps 745 mmHg 99%
21:00 0°C° 1 mm 5 mps 745 mmHg 99%
22:00 0°C° 1 mm 5 mps 745 mmHg 99%
23:00 +1°C° 0.4 mm 5 mps 744 mmHg 99%

15 April, Thursday

Time Temperature Precipitation Wind Pressure Humidity
00:00 +1°C° 0.4 mm 4 mps 744 mmHg 99%
01:00 +1°C° 0.4 mm 4 mps 744 mmHg 99%
02:00 +1°C° 0.4 mm 4 mps 744 mmHg 99%
03:00 +3°C° 0.4 mm 4 mps 745 mmHg 99%
04:00 +3°C° 0.4 mm 4 mps 745 mmHg 99%
05:00 +3°C° 0.3 mm 4 mps 745 mmHg 99%
06:00 +4°C° 0.3 mm 4 mps 745 mmHg 99%
07:00 +4°C° 0.3 mm 4 mps 745 mmHg 99%
08:00 +4°C° 0.2 mm 4 mps 746 mmHg 98%
09:00 +5°C° 0.2 mm 4 mps 746 mmHg 98%
10:00 +5°C° 0.2 mm 4 mps 747 mmHg 97%
11:00 +5°C° 0.1 mm 4 mps 747 mmHg 97%
12:00 +5°C° 0.1 mm 4 mps 747 mmHg 97%
13:00 +5°C° 0.1 mm 3 mps 747 mmHg 97%
14:00 +6°C° 0 mm 4 mps 748 mmHg 96%
15:00 +6°C° 0 mm 4 mps 748 mmHg 95%
16:00 +7°C° 0 mm 4 mps 748 mmHg 94%
17:00 +7°C° 0.1 mm 5 mps 748 mmHg 94%
18:00 +7°C° 0.1 mm 5 mps 748 mmHg 94%
19:00 +5°C° 0.1 mm 6 mps 749 mmHg 95%
20:00 +5°C° 0.4 mm 6 mps 749 mmHg 94%
21:00 +4°C° 0.4 mm 6 mps 750 mmHg 93%
22:00 +4°C° 0.4 mm 6 mps 750 mmHg 92%
23:00 +4°C° 0 mm 6 mps 750 mmHg 90%
Show more